Orbital Elements at Epoch 2459200.5 (2020-Dec-17.0) TDB
Reference: JPL 32 (heliocentric ecliptic J2000)
Element | Value | Uncertainty (1-sigma) | Units |
e | .2769517506097269 | 2.6296e-08 | |
a | 2.591559550757013 | 9.4766e-09 | au |
q | 1.873822596365501 | 6.5811e-08 | au |
i | 9.983308807905001 | 1.0576e-06 | deg |
node | 226.3628345010829 | 3.2417e-06 | deg |
peri | 112.7520501235296 | 4.1719e-06 | deg |
M | 217.2858042845432 | 7.3554e-06 | deg |
tp | 2459804.594511102583 (2022-Aug-13.09451110) | 3.3633e-05 | TDB |
period | 1523.842970958047 4.17 | 8.3584e-06 2.288e-08 | d yr |
n | .2362448144992698 | 1.2958e-09 | deg/d |
Q | 3.309296505148525 | 1.2101e-08 | au |
|
| | Orbit Determination Parameters
Additional Information
|